GW1431 Weather Reports


time (UTC)temp
C
wind
direction
speed
KPH
gust
KPH
rain 1hr
cm
rain 24hr
cm
rain mn
cm
humidity
%
barometer
mb
20260505153123 25 46 3.2 12.9 0.00 0.00 0.00 46 1011.2
20260505152115 25 169 3.2 8.0 0.00 0.00 0.00 44 1011.2
20260505151616 25 299 3.2 6.4 0.00 0.00 0.00 44 1011.3
20260505151116 25 161 3.2 6.4 0.00 0.00 0.00 44 1011.3
20260505150113 24 210 3.2 9.7 0.00 0.00 0.00 46 1011.2
20260505140610 22 80 3.2 8.0 0.00 0.00 0.00 52 1011.5
20260505125039 17 147 1.6 3.2 0.00 0.00 0.00 65 1012.1
20260505124537 17 130 1.6 4.8 0.00 0.00 0.00 67 1012.1
20260505124033 16 167 1.6 4.8 0.00 0.00 0.00 67 1012.1
20260505123034 16 167 1.6 4.8 0.00 0.00 0.00 68 1012.2
20260505122535 16 167 1.6 4.8 0.00 0.00 0.00 67 1012.2
20260505122034 15 180 1.6 4.8 0.00 0.00 0.00 68 1012.2
20260505121529 15 147 1.6 6.4 0.00 0.00 0.00 70 1012.2
20260505121029 15 97 3.2 6.4 0.00 0.00 0.00 68 1012.1
20260505120528 15 168 3.2 6.4 0.00 0.00 0.00 69 1012.1
20260505120030 15 186 1.6 6.4 0.00 0.00 0.00 69 1012.0
20260505115529 15 178 1.6 6.4 0.00 0.00 0.00 70 1011.9
20260505115029 14 173 3.2 8.0 0.00 0.00 0.00 71 1011.8
20260505114528 14 136 3.2 8.0 0.00 0.00 0.00 70 1011.8
20260505114030 14 173 3.2 6.4 0.00 0.00 0.00 71 1011.8
20260505113532 14 173 3.2 8.0 0.00 0.00 0.00 71 1011.8
20260505113026 14 184 3.2 8.0 0.00 0.00 0.00 71 1011.7
20260505112526 14 173 3.2 8.0 0.00 0.00 0.00 71 1011.7
20260505112025 14 175 1.6 6.4 0.00 0.00 0.00 72 1011.6
20260505111525 14 182 1.6 6.4 0.00 0.00 0.00 72 1011.5
20260505111026 14 178 1.6 6.4 0.00 0.00 0.00 71 1011.4
20260505101949 13 144 0.0 3.2 0.00 0.00 0.00 72 1010.8
20260505100937 13 191 1.6 4.8 0.00 0.00 0.00 72 1010.9
20260505100431 13 191 1.6 4.8 0.00 0.00 0.00 72 1010.8
20260505095420 13 191 0.0 1.6 0.00 0.00 0.00 72 1010.8
20260505094406 13 191 0.0 3.2 0.00 0.00 0.00 71 1010.7
20260505093902 13 191 0.0 3.2 0.00 0.00 0.00 71 1010.7
20260505093355 13 191 0.0 3.2 0.00 0.00 0.00 71 1010.8
20260505092849 14 191 0.0 3.2 0.00 0.00 0.00 71 1010.6
20260505092348 14 191 1.6 4.8 0.00 0.00 0.00 70 1010.7
20260505091838 14 191 1.6 4.8 0.00 0.00 0.00 70 1010.5
20260505091331 14 191 1.6 3.2 0.00 0.00 0.00 70 1010.5
20260505090825 14 191 1.6 6.4 0.00 0.00 0.00 70 1010.5
20260505090318 14 191 1.6 6.4 0.00 0.00 0.00 70 1010.5
20260505085813 14 191 1.6 6.4 0.00 0.00 0.00 70 1010.5
20260505084801 14 191 1.6 4.8 0.00 0.00 0.00 70 1010.5
20260505083243 14 191 1.6 6.4 0.00 0.00 0.00 69 1010.5
20260505082736 15 191 1.6 6.4 0.00 0.00 0.00 69 1010.5
20260505082231 15 191 3.2 6.4 0.00 0.00 0.00 69 1010.5
20260505081219 15 191 1.6 4.8 0.00 0.00 0.00 69 1010.5
20260505080712 15 191 1.6 4.8 0.00 0.00 0.00 68 1010.5
20260505080208 15 191 1.6 4.8 0.00 0.00 0.00 68 1010.4
20260505075702 15 191 1.6 4.8 0.00 0.00 0.00 68 1010.3
20260505075155 15 191 1.6 4.8 0.00 0.00 0.00 68 1010.3
20260505074649 15 191 0.0 3.2 0.00 0.00 0.00 68 1010.2
20260505073638 15 191 1.6 4.8 0.00 0.00 0.00 67 1010.2
20260505072634 15 191 1.6 4.8 0.00 0.00 0.00 67 1010.2
20260505072132 15 191 1.6 3.2 0.00 0.00 0.00 67 1010.2
20260505071633 15 191 1.6 3.2 0.00 0.00 0.00 67 1010.2
20260505071133 15 191 1.6 3.2 0.00 0.00 0.00 67 1010.2
20260505070632 15 191 1.6 3.2 0.00 0.00 0.00 66 1010.2
20260505070133 15 191 1.6 3.2 0.00 0.00 0.00 66 1010.3
20260505065131 15 191 1.6 3.2 0.00 0.00 0.00 66 1010.3
20260505064629 15 191 1.6 3.2 0.00 0.00 0.00 66 1010.3
20260505064132 16 191 0.0 3.2 0.00 0.00 0.00 66 1010.3
20260505063632 16 191 1.6 3.2 0.00 0.00 0.00 65 1010.3
20260505063129 16 191 1.6 3.2 0.00 0.00 0.00 65 1010.3
20260505062628 16 191 0.0 3.2 0.00 0.00 0.00 65 1010.4
20260505062125 16 191 1.6 6.4 0.00 0.00 0.00 64 1010.4
20260505061622 16 191 1.6 6.4 0.00 0.00 0.00 64 1010.3
20260505061122 16 183 1.6 4.8 0.00 0.00 0.00 63 1010.4
20260505060622 16 177 1.6 3.2 0.00 0.00 0.00 63 1010.4
20260505060125 16 177 1.6 4.8 0.00 0.00 0.00 63 1010.4
20260505055618 16 177 1.6 4.8 0.00 0.00 0.00 63 1010.4
20260505055112 16 173 3.2 4.8 0.00 0.00 0.00 62 1010.4
20260505054606 16 177 3.2 8.0 0.00 0.00 0.00 62 1010.5
20260505054059 16 185 3.2 8.0 0.00 0.00 0.00 62 1010.5
20260505053554 16 177 1.6 8.0 0.00 0.00 0.00 62 1010.5
20260505053049 16 180 1.6 6.4 0.00 0.00 0.00 62 1010.5
20260505052541 16 200 1.6 6.4 0.00 0.00 0.00 62 1010.5
20260505052041 16 200 3.2 6.4 0.00 0.00 0.00 62 1010.5
20260505051540 16 190 1.6 8.0 0.00 0.00 0.00 62 1010.5
20260505051042 16 179 1.6 8.0 0.00 0.00 0.00 62 1010.5
20260505050540 16 173 1.6 4.8 0.00 0.00 0.00 62 1010.5
20260505041527 16 188 1.6 6.4 0.00 0.00 0.00 59 1010.2
20260505040527 16 179 1.6 4.8 0.00 0.00 0.00 59 1010.2
20260505040027 16 188 1.6 4.8 0.00 0.00 0.00 59 1010.2
20260505035015 16 186 1.6 4.8 0.00 0.00 0.00 58 1010.1
20260505034509 16 188 1.6 4.8 0.00 0.00 0.00 58 1010.1
20260505034004 16 185 3.2 8.0 0.00 0.00 0.00 57 1010.1
20260505033456 16 192 3.2 8.0 0.00 0.00 0.00 57 1010.1
20260505032951 16 175 1.6 4.8 0.00 0.00 0.00 57 1010.1
20260505032445 16 175 3.2 4.8 0.00 0.00 0.00 56 1010.1
20260505031940 17 178 3.2 6.4 0.00 0.00 0.00 56 1010.1
20260505031433 17 188 3.2 6.4 0.00 0.00 0.00 56 1010.1
20260505030927 17 184 3.2 4.8 0.00 0.00 0.00 56 1010.1
20260505025914 17 184 3.2 6.4 0.00 0.00 0.00 56 1010.1
20260505025410 16 182 1.6 6.4 0.00 0.00 0.00 56 1010.2
20260505024903 16 180 1.6 6.4 0.00 0.00 0.00 57 1010.3
20260505024357 16 175 1.6 3.2 0.00 0.00 0.00 57 1010.3
20260505023345 16 175 0.0 3.2 0.00 0.00 0.00 58 1010.3
20260505022838 16 175 0.0 3.2 0.00 0.00 0.00 59 1010.3
20260505022333 16 175 1.6 3.2 0.00 0.00 0.00 57 1010.2
20260505021827 16 175 1.6 3.2 0.00 0.00 0.00 57 1010.2
20260505021327 16 175 1.6 4.8 0.00 0.00 0.00 56 1010.3
20260505020309 17 175 1.6 4.8 0.00 0.00 0.00 55 1010.2
20260505015804 17 175 1.6 4.8 0.00 0.00 0.00 55 1010.2
20260505015258 17 175 1.6 3.2 0.00 0.00 0.00 54 1010.3
20260505014752 17 175 1.6 3.2 0.00 0.00 0.00 54 1010.3
20260505014252 17 175 1.6 3.2 0.00 0.00 0.00 54 1010.2
20260505013752 17 175 1.6 3.2 0.00 0.00 0.00 54 1010.2
20260505013253 17 175 1.6 4.8 0.00 0.00 0.00 54 1010.2
20260505012753 17 175 1.6 4.8 0.00 0.00 0.00 53 1010.1
20260505012251 17 175 1.6 3.2 0.00 0.00 0.00 53 1010.0
20260505011750 17 175 0.0 3.2 0.00 0.00 0.00 52 1009.9
20260505011251 18 175 0.0 3.2 0.00 0.00 0.00 51 1009.9
20260505010748 18 175 1.6 4.8 0.00 0.00 0.00 50 1009.8
20260505010247 18 175 1.6 4.8 0.00 0.00 0.00 49 1009.7
20260505005747 19 175 3.2 6.4 0.00 0.00 0.00 48 1009.6
20260505005247 19 175 3.2 8.0 0.00 0.00 0.00 47 1009.6
20260505004744 19 173 3.2 8.0 0.00 0.00 0.00 46 1009.6
20260505004245 19 165 4.8 9.7 0.00 0.00 0.00 46 1009.6
20260505003745 19 179 4.8 9.7 0.00 0.00 0.00 46 1009.6
20260505003244 19 173 4.8 9.7 0.00 0.00 0.00 45 1009.6
20260505002743 19 180 4.8 9.7 0.00 0.00 0.00 45 1009.6
20260505002243 19 200 4.8 8.0 0.00 0.00 0.00 45 1009.6
20260505001736 19 165 4.8 9.7 0.00 0.00 0.00 45 1009.6
20260505000725 20 184 4.8 9.7 0.00 0.00 0.00 45 1009.5
20260505000219 20 191 4.8 9.7 0.00 0.00 0.00 45 1009.4
20260504235713 20 173 4.8 11.3 0.00 0.00 0.00 44 1009.4
20260504235208 20 192 4.8 11.3 0.00 0.00 0.00 43 1009.4
20260504234708 20 184 6.4 11.3 0.00 0.00 0.00 43 1009.3
20260504234209 20 179 6.4 11.3 0.00 0.00 0.00 43 1009.3
20260504232707 21 178 4.8 11.3 0.00 0.00 0.00 41 1009.3
20260504231708 21 155 4.8 12.9 0.00 0.00 0.00 41 1009.3
20260504231209 21 178 4.8 12.9 0.00 0.00 0.00 41 1009.4
20260504230707 21 184 4.8 11.3 0.00 0.00 0.00 41 1009.4
20260504230209 21 182 4.8 12.9 0.00 0.00 0.00 40 1009.4
20260504225205 21 182 6.4 14.5 0.00 0.00 0.00 40 1009.4
20260504224204 21 201 8.0 16.1 0.00 0.00 0.00 39 1009.4
20260504223704 21 178 8.0 16.1 0.00 0.00 0.00 39 1009.4
20260504223203 21 200 6.4 16.1 0.00 0.00 0.00 39 1009.5
20260504222703 21 180 6.4 11.3 0.00 0.00 0.00 39 1009.4
20260504222205 21 169 6.4 14.5 0.00 0.00 0.00 40 1009.3
20260504221705 21 167 6.4 14.5 0.00 0.00 0.00 40 1009.4
20260504221200 21 197 6.4 14.5 0.00 0.00 0.00 41 1009.4
20260504220701 21 178 6.4 14.5 0.00 0.00 0.00 39 1009.4
20260504220159 21 184 6.4 14.5 0.00 0.00 0.00 39 1009.4
20260504215659 21 173 6.4 12.9 0.00 0.00 0.00 39 1009.4
20260504215201 21 191 6.4 12.9 0.00 0.00 0.00 41 1009.4
20260504214700 21 184 6.4 12.9 0.00 0.00 0.00 39 1009.3
20260504214159 21 196 4.8 9.7 0.00 0.00 0.00 41 1009.3
20260504213158 21 166 4.8 11.3 0.00 0.00 0.00 42 1009.4
20260504212652 21 188 6.4 14.5 0.00 0.00 0.00 40 1009.4
20260504212146 21 171 6.4 14.5 0.00 0.00 0.00 39 1009.5
20260504211640 21 153 8.0 17.7 0.00 0.00 0.00 39 1009.4
20260504211134 21 201 8.0 17.7 0.00 0.00 0.00 40 1009.4
20260504210628 21 159 4.8 17.7 0.00 0.00 0.00 41 1009.4
20260504210122 21 173 4.8 11.3 0.00 0.00 0.00 40 1009.4
20260504205617 21 207 4.8 11.3 0.00 0.00 0.00 40 1009.4
20260504205115 21 177 4.8 14.5 0.00 0.00 0.00 41 1009.4
20260504204613 21 169 6.4 17.7 0.00 0.00 0.00 41 1009.4
20260504204113 21 171 6.4 17.7 0.00 0.00 0.00 40 1009.5
20260504203614 21 177 6.4 16.1 0.00 0.00 0.00 40 1009.5
20260504203112 21 164 6.4 16.1 0.00 0.00 0.00 41 1009.5
20260504202609 21 165 6.4 14.5 0.00 0.00 0.00 41 1009.6
20260504202110 21 178 4.8 14.5 0.00 0.00 0.00 40 1009.8
20260504201611 21 163 3.2 9.7 0.00 0.00 0.00 41 1009.8
20260504201110 21 120 4.8 9.7 0.00 0.00 0.00 42 1009.8
20260504195609 21 172 4.8 9.7 0.00 0.00 0.00 40 1010.1
20260504195108 21 173 6.4 14.5 0.00 0.00 0.00 40 1010.1
20260504194605 21 177 6.4 16.1 0.00 0.00 0.00 41 1010.2
20260504194105 21 165 6.4 16.1 0.00 0.00 0.00 40 1010.3
20260504193606 21 185 6.4 12.9 0.00 0.00 0.00 39 1010.4
20260504193106 21 171 6.4 12.9 0.00 0.00 0.00 41 1010.6
20260504192600 21 168 6.4 12.9 0.00 0.00 0.00 42 1010.5
20260504192054 21 180 8.0 14.5 0.00 0.00 0.00 43 1010.7
20260504191548 21 205 6.4 14.5 0.00 0.00 0.00 39 1010.8
20260504191042 21 166 4.8 16.1 0.00 0.00 0.00 39 1010.8
20260504190536 21 140 6.4 16.1 0.00 0.00 0.00 41 1010.9
20260504190031 21 188 4.8 16.1 0.00 0.00 0.00 40 1011.0
20260504185524 21 185 3.2 9.7 0.00 0.00 0.00 41 1011.1
20260504185019 21 158 6.4 12.9 0.00 0.00 0.00 43 1011.2
20260504184512 20 184 8.0 17.7 0.00 0.00 0.00 40 1011.2
20260504184006 20 184 8.0 17.7 0.00 0.00 0.00 40 1011.4
20260504183500 20 201 6.4 16.1 0.00 0.00 0.00 44 1011.4
20260504182954 20 179 8.0 16.1 0.00 0.00 0.00 41 1011.4
20260504181942 20 183 4.8 12.9 0.00 0.00 0.00 39 1011.6
20260504181436 20 168 6.4 12.9 0.00 0.00 0.00 41 1011.7
20260504180930 20 174 4.8 11.3 0.00 0.00 0.00 42 1011.6
20260504180424 20 197 6.4 12.9 0.00 0.00 0.00 42 1011.7
20260504175919 20 180 6.4 19.3 0.00 0.00 0.00 41 1011.7
20260504175412 20 166 6.4 19.3 0.00 0.00 0.00 44 1011.6
20260504174400 21 194 3.2 8.0 0.00 0.00 0.00 42 1011.8
20260504173855 21 186 3.2 11.3 0.00 0.00 0.00 39 1011.8
20260504173356 20 216 4.8 11.3 0.00 0.00 0.00 41 1011.8
20260504172855 21 147 3.2 11.3 0.00 0.00 0.00 41 1011.9
20260504172355 21 73 3.2 9.7 0.00 0.00 0.00 40 1011.9
20260504171854 20 331 3.2 9.7 0.00 0.00 0.00 41 1012.1
20260504171357 20 180 3.2 9.7 0.00 0.00 0.00 41 1012.1
20260504170857 19 196 4.8 11.3 0.00 0.00 0.00 42 1012.2
20260504170354 19 146 4.8 11.3 0.00 0.00 0.00 40 1012.3
20260504160338 19 218 3.2 8.0 0.00 0.00 0.00 45 1013.0